Regional Weather Roundup
Issued by NWS

Home | Current Version | Previous Version | Graphics & Text | Print | Product List | Glossary Off
Versions: 1 2 3 4 5 6 7 8 9 10 11 12 13 14 15 16 17 18 19 20 21 22 23 24 25 26 27 28 29 30 31 32 33 34 35 36 37 38 39 40 41 42 43 44 45 46 47 48 49 50

000
ASUS43 KLOT 180710
RWRIL

ILLINOIS REGIONAL WEATHER ROUNDUP
NATIONAL WEATHER SERVICE CHICAGO/ROMEOVILLE IL
100 AM CST THU DEC 18 2014

NOTE: "FAIR" INDICATES FEW OR NO CLOUDS BELOW 12,000 FEET WITH NO
SIGNIFICANT WEATHER AND/OR OBSTRUCTIONS TO VISIBILITY.

* THESE STATIONS ARE NOT UNDER NWS QUALITY CONTROL. THEY ALSO MAY NOT
  REPORT WEATHER SUCH AS PRECIPITATION OR FOG.

ILZ001-002-007-009-015-016-024-180800-
NORTHWEST ILLINOIS

CITY           SKY/WX    TMP DP  RH WIND       PRES   REMARKS
MOLINE         MOCLDY    17  13  84 NE3       30.29F
STERLING*      PTCLDY    18  12  79 CALM      30.30F
SAVANNA*       PTCLDY    17  15  92 CALM      30.31R
$$

ILZ003-004-008-010-011-017-018-180800-
NORTH CENTRAL ILLINOIS

CITY           SKY/WX    TMP DP  RH WIND       PRES   REMARKS
ROCKFORD       CLOUDY    22  14  71 N6        30.31F WCI  14
FREEPORT*      PTCLDY    16  14  89 CALM      30.30S
ROCHELLE*      CLOUDY    22  17  80 NW6       30.29S WCI  15
DE KALB*       CLOUDY    21  15  79 N6        30.27F WCI  13
PERU*          CLEAR     21  17  86 N6        30.30S WCI  13
$$

ILZ005-006-012>014-019>023-180800-
NORTHEAST ILLINOIS

CITY           SKY/WX    TMP DP  RH WIND       PRES   REMARKS
CHICAGO-OHARE  CLOUDY    24  15  68 N8        30.28F WCI  15
CHICAGO-MIDWAY CLOUDY    26  16  65 W5        30.29F WCI  20
AURORA         CLOUDY    24  16  71 NW3       30.28F
LANSING*       CLOUDY    25  17  71 CALM      30.28F
JOLIET*        CLOUDY    24  16  73 N5        30.30S WCI  18
WAUKEGAN       CLEAR     19  14  81 W5        30.27F WCI  12
DUPAGE AIRPORT CLOUDY    24  15  68 NW8       30.27F WCI  15
KANKAKEE*      CLOUDY    25  19  76 NW5       30.30R WCI  19
WHEELING       PTCLDY    21  14  74 NW7       30.30F WCI  12
MORRIS*        PTCLDY    21  18  87 CALM      30.29S
ROMEOVILLE*    CLOUDY    24  16  74 NW5       30.29S WCI  18
NORTHERLY ISL    N/A     26  17  68 W5          N/A  WCI  21
$$

LMZ740>746-180800-
SOUTHERN LAKE MICHIGAN

STATION/POSITION SKY/WX   TEMP    WIND        PRES    VSBY  WAVE
                          AIR SEA DIR/SP/G                  HT/PER
                          (F)     (DEG/KT/KT) (MB)    (MI)  (FT/S)
WAUKEGAN HARBOR            22     300/  6/ 12   N/A
HARRISON CRIB              24     290/ 10/ 12   N/A
BURNHAM HARBOR             26     270/  6/  9   N/A
CALUMET HARBOR             24     270/  2/  5 1024.2R
$$

ILZ025>027-034>036-040-047-049-050-058-095>099-180800-
WEST-CENTRAL ILLINOIS

CITY           SKY/WX    TMP DP  RH WIND       PRES   REMARKS
QUINCY         CLOUDY    25  21  85 NE5       30.28F WCI  19
GALESBURG*     CLOUDY    17  15  93 CALM      30.29F
MACOMB*        CLOUDY    21  20  95 CALM      30.33R
JACKSONVILLE*  CLOUDY    27  23  86 CALM      30.30F
PITTSFIELD*    CLOUDY    27  23  86 NE3       30.30F
$$

ILZ028>032-037-038-041>044-048-051>054-059>061-180800-
CENTRAL ILLINOIS

CITY           SKY/WX    TMP DP  RH WIND       PRES   REMARKS
PONTIAC        PTCLDY    19  18  93 CALM      30.30F
BLOOMINGTON    MOCLDY    24  21  88 CALM      30.28F
DECATUR        CLOUDY    24  20  84 SW5       30.31S WCI  18
PEORIA         CLOUDY    22  18  85 CALM      30.30F
LACON*         PTCLDY    19  16  88 CALM      30.29F
LINCOLN*       CLOUDY    23  20  90 CALM      30.33R
SPRINGFIELD    CLOUDY    25  20  81 CALM      30.33R
TAYLORVILLE    CLOUDY    23  21  93 CALM      30.32R
$$

ILZ033-039-045-046-055>057-062-063-180800-
EAST-CENTRAL ILLINOIS

CITY           SKY/WX    TMP DP  RH WIND       PRES   REMARKS
CHAMPAIGN      CLOUDY    26  18  71 N5        30.28F WCI  20
DANVILLE*      CLOUDY    25  19  78 N6        30.28R WCI  18
RANTOUL*       CLOUDY    27  19  73 CALM      30.29F
MATTOON        CLOUDY    24  17  74 E3        30.29S
PARIS*         CLOUDY    26  21  81 CALM      30.31S
$$

ILZ079-100>102-180800-
SOUTHWEST ILLINOIS

CITY           SKY/WX    TMP DP  RH WIND       PRES   REMARKS
ALTON          CLOUDY    28  24  82 NE5       30.31S WCI  23
BELLEVILLE     CLOUDY    29  26  87 NE6       30.30F WCI  23
CAHOKIA*       CLOUDY    32  26  78 E6        30.30F WCI  26
SPARTA*        CLOUDY    30  27  86 E5        30.31S WCI  25
$$

ILZ064>066-069>071-074>076-080>082-084>086-088>090-092>094-180800-
SOUTH-CENTRAL ILLINOIS

CITY           SKY/WX    TMP DP  RH WIND       PRES   REMARKS
CARBONDALE     CLOUDY    32  26  78 E6        30.31S WCI  26
CAIRO*         LGT SNOW  36  32  85 CALM      30.29S
EFFINGHAM*     CLOUDY    25  19  78 CALM      30.33S
MARION         CLOUDY    32  28  86 CALM      30.32S
MT. VERNON     CLOUDY    28  21  74 NE6       30.31F WCI  22
CENTRALIA*     CLOUDY    29  24  81 E3        30.31R
SALEM*         CLOUDY    30  25  83 CALM      30.31S
METROPOLIS*    LGT RAIN  34  31  88 CALM      30.29F
$$

ILZ067-068-072-073-078-083-087-091-180800-
SOUTHEAST ILLINOIS

CITY           SKY/WX    TMP DP  RH WIND       PRES   REMARKS
LAWRENCEVILLE  CLOUDY    26  21  81 NE8       30.31F WCI  18
FLORA*         CLOUDY    27  23  85 NE5       30.32S WCI  21
FAIRFIELD*     CLOUDY    29  24  84 N3        30.32R
HARRISBURG*    CLOUDY    31  27  84 NE3       30.32S
ROBINSON*      CLOUDY    26  22  85 NE5       30.34R WCI  20
CARMI*         CLOUDY    31  28  88 N3        30.32R
$$

ABBREVIATIONS USED IN REMARKS
   TC - TEMPERATURE IN CELSIUS
  WCI - WIND CHILL INDEX
   HX - HEAT INDEX
  VSB - VISIBILITY
$$




USA.gov is the U.S. government's official web portal to all federal, state and local government web resources and services.